Location: Newark
(5.8900°S, 42.6378°W)
Time: 14:48:18
(UTC+00:00)

S-56A Canister/Altair - All Passes

Search period start: 19 September 2019 00:00
Search period end: 29 September 2019 00:00
Orbit: 633 x 2499 km, 38.9° (Epoch: 17 September)

Date Brightness Start Highest point End Pass type
(mag) Time Alt. Az. Time Alt. Az. Time Alt. Az.
19 Sep - 08:21:59 10° SSW 08:29:32 25° SE 08:39:15 10° E visible
19 Sep - 10:24:07 10° SW 10:35:27 81° SE 10:50:28 10° NE daylight
19 Sep - 12:30:32 10° WSW 12:42:23 37° NW 12:55:43 10° NNE daylight
19 Sep - 23:23:48 10° NW 23:29:24 74° NE 23:33:53 10° SE visible
20 Sep - 07:50:00 10° S 07:56:20 20° SE 08:04:16 10° E visible
20 Sep - 09:51:26 10° SW 10:02:02 71° SE 10:16:36 10° NE daylight
20 Sep - 11:57:01 10° WSW 12:08:44 42° NW 12:22:32 10° NNE daylight
20 Sep - 14:13:05 10° NW 14:17:14 11° NNW 14:21:24 10° NNW daylight
20 Sep - 22:50:53 10° NW 22:56:50 57° NE 23:01:22 10° ESE visible
21 Sep - 00:58:16 10° WSW 01:00:25 13° SW 01:02:31 10° S night (unlit)
21 Sep - 07:18:19 10° S 07:23:10 15° SE 07:28:58 10° ESE visible
21 Sep - 09:18:49 10° SW 09:28:42 62° SE 09:42:37 10° ENE daylight
21 Sep - 11:23:42 10° WSW 11:35:07 47° NW 11:49:15 10° NNE daylight
21 Sep - 13:36:57 10° WNW 13:43:24 14° NW 13:50:01 10° N daylight
21 Sep - 22:17:56 10° NNW 22:24:12 46° NE 22:28:51 10° ESE visible
22 Sep - 00:24:29 10° W 00:27:47 17° SW 00:30:49 10° S visible
22 Sep - 06:47:27 10° SSE 06:50:02 11° SE 06:52:53 10° SE visible
22 Sep - 08:46:21 10° SSW 08:55:29 53° SE 09:08:31 10° ENE daylight
22 Sep - 10:50:33 10° WSW 11:01:33 53° NW 11:15:50 10° NNE daylight
22 Sep - 13:01:51 10° WNW 13:09:36 16° NW 13:17:48 10° N daylight
22 Sep - 21:44:57 10° NNW 21:51:29 38° NE 21:56:15 10° ESE visible
22 Sep - 23:50:55 10° W 23:55:12 23° SW 23:58:54 10° SSE visible
23 Sep - 08:13:58 10° SSW 08:22:21 45° SE 08:34:19 10° ENE visible
23 Sep - 10:17:33 10° WSW 10:28:03 59° NW 10:42:19 10° NE daylight
23 Sep - 12:27:19 10° WNW 12:35:50 19° NW 12:45:11 10° N daylight
23 Sep - 21:11:57 10° NNW 21:18:42 32° NE 21:23:37 10° E visible
23 Sep - 23:17:26 10° WNW 23:22:39 32° SW 23:26:51 10° SSE visible
24 Sep - 07:41:43 10° SSW 07:49:18 37° SE 08:00:01 10° ENE visible
24 Sep - 09:44:41 10° WSW 09:54:38 67° NW 10:08:43 10° NE daylight
24 Sep - 11:53:11 10° W 12:02:06 22° NW 12:12:19 10° N daylight
24 Sep - 20:38:54 10° NNW 20:45:50 28° NE 20:50:54 10° E daylight
24 Sep - 22:43:59 10° WNW 22:50:06 42° SW 22:54:43 10° SSE visible
25 Sep - 07:09:35 10° SSW 07:16:18 30° SE 07:25:37 10° E visible
25 Sep - 09:11:57 10° SW 09:21:18 75° NW 09:35:01 10° NE daylight
25 Sep - 11:19:22 10° W 11:28:27 24° NW 11:39:17 10° NNE daylight
25 Sep - 20:05:51 10° NNW 20:12:53 25° NNE 20:18:06 10° E daylight
25 Sep - 22:10:33 10° WNW 22:17:32 56° SW 22:22:30 10° SE visible
26 Sep - 06:37:36 10° S 06:43:23 24° SE 06:51:04 10° E visible
26 Sep - 08:39:19 10° SW 08:48:05 85° NW 09:01:17 10° NE daylight
26 Sep - 10:45:48 10° W 10:54:51 27° NW 11:06:06 10° NNE daylight
26 Sep - 19:32:46 10° NNW 19:39:51 22° NNE 19:45:11 10° E daylight
26 Sep - 21:37:06 10° NW 21:44:55 73° SW 21:50:15 10° SE visible
27 Sep - 06:05:51 10° S 06:10:31 18° SE 06:16:21 10° E visible
27 Sep - 08:06:47 10° SW 08:14:57 84° SE 08:27:28 10° NE visible
27 Sep - 10:12:28 10° W 10:21:19 31° NW 10:32:49 10° NNE daylight
27 Sep - 18:59:41 10° NNW 19:06:43 20° NNE 19:12:09 10° ENE daylight
27 Sep - 21:03:38 10° NW 21:12:14 89° SW 21:17:55 10° SE visible
27 Sep - 23:14:15 10° WSW 23:15:51 11° SW 23:17:22 10° SSW visible
28 Sep - 05:34:33 10° SSE 05:37:40 13° SE 05:41:15 10° ESE visible
28 Sep - 07:34:21 10° SW 07:41:56 72° SE 07:53:36 10° NE visible
28 Sep - 09:39:18 10° W 09:47:52 34° NW 09:59:28 10° NNE daylight
28 Sep - 18:26:37 10° N 18:33:30 18° NNE 18:38:58 10° ENE daylight
28 Sep - 20:30:10 10° NW 20:39:28 76° NE 20:45:32 10° SE daylight
28 Sep - 22:39:22 10° WSW 22:43:11 16° SW 22:46:25 10° S visible
